FW7023 Weather Reports


Display with metric or nautical units.
time (UTC)temp
F
wind
direction
speed
MPH
gust
MPH
rain 1hr
in
rain 24hr
in
rain mn
in
humidity
%
barometer
mb
20260504185258 83 193 6.0 7.0 0.00 0.00 0.00 38 1002.0
20260504184754 81 104 0.0 1.0 0.00 0.00 0.00 41 1001.8
20260504184250 80 232 7.0 9.0 0.00 0.00 0.00 40 1001.8
20260504183746 80 224 3.0 6.0 0.00 0.00 0.00 40 1001.7
20260504183243 81 205 3.0 5.0 0.00 0.00 0.00 40 1001.7
20260504182741 81 203 0.0 1.0 0.00 0.00 0.00 41 1001.9
20260504182238 80 107 4.0 5.0 0.00 0.00 0.00 41 1001.9
20260504181736 80 48 3.0 6.0 0.00 0.00 0.00 41 1002.2
20260504181233 80 188 3.0 3.0 0.00 0.00 0.00 42 1002.1
20260504180732 80 206 9.0 10.0 0.00 0.00 0.00 42 1002.0
20260504180231 80 222 2.0 7.0 0.00 0.00 0.00 41 1002.0
20260504175728 80 182 3.0 3.0 0.00 0.00 0.00 42 1002.2
20260504175224 80 180 0.0 0.0 0.00 0.00 0.00 45 1002.2
20260504174722 80 222 1.0 2.0 0.00 0.00 0.00 43 1002.3
20260504174220 80 312 2.0 5.0 0.00 0.00 0.00 42 1002.2
20260504173716 80 174 3.0 5.0 0.00 0.00 0.00 41 1002.5
20260504173213 80 236 2.0 5.0 0.00 0.00 0.00 41 1002.5
20260504172710 79 117 0.0 1.0 0.00 0.00 0.00 43 1002.4
20260504172206 79 227 5.0 7.0 0.00 0.00 0.00 42 1002.3
20260504171703 79 175 1.0 1.0 0.00 0.00 0.00 43 1002.4
20260504171200 79 211 6.0 8.0 0.00 0.00 0.00 41 1002.6
20260504170656 80 203 5.0 7.0 0.00 0.00 0.00 39 1002.5
20260504170154 79 61 3.0 5.0 0.00 0.00 0.00 43 1002.6
20260504160112 75 190 3.0 5.0 0.00 0.00 0.00 46 1002.9
20260504151039 72 350 3.0 5.0 0.00 0.00 0.00 48 1002.7
20260504150537 72 59 3.0 6.0 0.00 0.00 0.00 48 1003.1
20260504141003 67 180 2.0 3.0 0.00 0.00 0.00 55 1003.3
20260504140459 67 179 0.0 0.0 0.00 0.00 0.00 55 1003.3
20260504130424 65 198 3.0 3.0 0.00 0.00 0.00 59 1003.5
20260504110310 55 165 0.0 0.0 0.00 0.00 0.00 88 1003.4
20260504100228 55 148 0.0 0.0 0.00 0.00 0.00 86 1004.1
20260504081621 55 172 0.0 0.0 0.00 0.00 0.00 84 1004.6
20260504081117 55 172 0.0 0.0 0.00 0.00 0.00 83 1004.7
20260504080614 56 172 0.0 0.0 0.00 0.00 0.00 83 1004.7
20260504080111 56 172 0.0 0.0 0.00 0.00 0.00 82 1004.9
20260504050427 63 82 1.0 2.0 0.00 0.00 0.00 71 1007.1
20260504045924 63 109 1.0 1.0 0.00 0.00 0.00 71 1006.9
20260504045420 62 183 1.0 1.0 0.00 0.00 0.00 72 1007.0
20260504044916 62 99 0.0 0.0 0.00 0.00 0.00 73 1006.9
20260504044414 62 134 0.0 1.0 0.00 0.00 0.00 75 1007.2
20260504043911 61 130 0.0 0.0 0.00 0.00 0.00 77 1007.1
20260504043408 61 155 0.0 0.0 0.00 0.00 0.00 77 1007.0
20260504042905 61 152 0.0 0.0 0.00 0.00 0.00 77 1007.0
20260504042402 60 170 0.0 1.0 0.00 0.00 0.00 78 1007.0
20260504041858 60 143 0.0 0.0 0.00 0.00 0.00 79 1007.3
20260504041354 60 143 1.0 1.0 0.00 0.00 0.00 78 1007.1
20260504040850 60 143 0.0 0.0 0.00 0.00 0.00 78 1007.3
20260504040348 60 142 0.0 0.0 0.00 0.00 0.00 77 1007.0
20260504035844 60 157 0.0 0.0 0.00 0.00 0.00 77 1006.9
20260504035342 61 157 0.0 0.0 0.00 0.00 0.00 76 1007.1
20260504034838 61 158 0.0 0.0 0.00 0.00 0.00 75 1006.8
20260504034336 62 158 0.0 0.0 0.00 0.00 0.00 74 1007.1
20260504033833 62 158 0.0 0.0 0.00 0.00 0.00 73 1007.2
20260504033331 62 166 0.0 0.0 0.00 0.00 0.00 71 1006.9
20260504032827 62 167 0.0 0.0 0.00 0.00 0.00 71 1007.2
20260504032324 62 167 1.0 1.0 0.00 0.00 0.00 71 1007.0
20260504031821 62 167 0.0 0.0 0.00 0.00 0.00 70 1006.9
20260504031319 63 145 0.0 0.0 0.00 0.00 0.00 69 1007.0
20260504030815 63 145 0.0 0.0 0.00 0.00 0.00 69 1007.1
20260504030312 63 168 0.0 0.0 0.00 0.00 0.00 68 1007.3
20260504025808 64 161 0.0 0.0 0.00 0.00 0.00 67 1007.1
20260504025306 64 162 0.0 0.0 0.00 0.00 0.00 65 1007.3
20260504024802 64 162 0.0 0.0 0.00 0.00 0.00 63 1007.3
20260504024258 64 156 0.0 0.0 0.00 0.00 0.00 63 1007.2
20260504023755 64 156 0.0 0.0 0.00 0.00 0.00 62 1007.2
20260504023252 65 155 0.0 0.0 0.00 0.00 0.00 62 1006.9
20260504022747 65 155 0.0 0.0 0.00 0.00 0.00 61 1007.0
20260504022244 66 156 0.0 1.0 0.00 0.00 0.00 61 1007.2
20260504021741 66 149 0.0 0.0 0.00 0.00 0.00 61 1007.1
20260504021238 66 136 0.0 0.0 0.00 0.00 0.00 60 1007.4
20260504020735 67 140 0.0 0.0 0.00 0.00 0.00 59 1007.1
20260504020231 67 139 0.0 0.0 0.00 0.00 0.00 59 1007.1
20260504015728 68 160 0.0 0.0 0.00 0.00 0.00 59 1007.2
20260504015224 68 170 0.0 0.0 0.00 0.00 0.00 58 1007.2
20260504014720 69 181 1.0 2.0 0.00 0.00 0.00 57 1006.9
20260504014217 69 144 0.0 0.0 0.00 0.00 0.00 56 1007.1
20260504013715 69 177 0.0 0.0 0.00 0.00 0.00 54 1007.1
20260504013212 70 162 0.0 0.0 0.00 0.00 0.00 53 1007.0
20260504012709 70 178 0.0 1.0 0.00 0.00 0.00 52 1007.0
20260504012207 70 162 0.0 0.0 0.00 0.00 0.00 51 1006.9
20260504011703 71 160 0.0 0.0 0.00 0.00 0.00 51 1007.1
20260504011200 71 160 0.0 0.0 0.00 0.00 0.00 52 1007.1
20260504010656 72 160 0.0 0.0 0.00 0.00 0.00 49 1007.0
20260504010151 72 160 0.0 0.0 0.00 0.00 0.00 49 1006.8
20260504005649 73 168 1.0 1.0 0.00 0.00 0.00 49 1006.8
20260504005145 73 169 0.0 1.0 0.00 0.00 0.00 50 1007.0
20260504004644 73 167 1.0 1.0 0.00 0.00 0.00 49 1006.7
20260504004140 74 178 1.0 2.0 0.00 0.00 0.00 52 1006.7
20260504003637 74 165 0.0 0.0 0.00 0.00 0.00 49 1006.9
20260504003133 74 178 1.0 2.0 0.00 0.00 0.00 50 1007.0
20260504002630 75 177 0.0 1.0 0.00 0.00 0.00 48 1007.0
20260504002128 77 177 1.0 2.0 0.00 0.00 0.00 47 1006.9
20260504001625 77 157 0.0 0.0 0.00 0.00 0.00 46 1006.8
20260504001121 78 166 0.0 0.0 0.00 0.00 0.00 45 1007.0
20260504000619 78 167 0.0 1.0 0.00 0.00 0.00 40 1007.1
20260504000116 79 109 1.0 1.0 0.00 0.00 0.00 40 1007.0
20260503235614 80 132 0.0 0.0 0.00 0.00 0.00 38 1006.8
20260503235110 80 131 0.0 0.0 0.00 0.00 0.00 37 1006.9
20260503234603 81 131 0.0 0.0 0.00 0.00 0.00 37 1006.9
20260503234100 81 125 0.0 0.0 0.00 0.00 0.00 34 1007.0
20260503233557 81 137 0.0 0.0 0.00 0.00 0.00 34 1007.0
20260503233052 82 114 1.0 1.0 0.00 0.00 0.00 33 1007.1
20260503232550 82 160 0.0 0.0 0.00 0.00 0.00 33 1007.1
20260503232047 82 214 0.0 0.0 0.00 0.00 0.00 32 1007.1
20260503231545 83 150 0.0 0.0 0.00 0.00 0.00 31 1007.1
20260503231041 83 112 0.0 1.0 0.00 0.00 0.00 30 1007.0
20260503230538 83 178 0.0 1.0 0.00 0.00 0.00 30 1007.1
20260503230036 84 219 0.0 1.0 0.00 0.00 0.00 30 1007.0
20260503225532 85 167 3.0 5.0 0.00 0.00 0.00 30 1007.0
20260503225027 84 174 2.0 3.0 0.00 0.00 0.00 29 1007.1
20260503224525 84 200 2.0 2.0 0.00 0.00 0.00 30 1007.2
20260503224023 85 211 3.0 5.0 0.00 0.00 0.00 29 1007.3
20260503223521 85 172 0.0 1.0 0.00 0.00 0.00 32 1007.3
20260503223016 84 184 0.0 0.0 0.00 0.00 0.00 30 1007.3
20260503222514 84 169 0.0 0.0 0.00 0.00 0.00 31 1007.3
20260503222012 84 116 1.0 1.0 0.00 0.00 0.00 30 1007.5
20260503221510 84 137 1.0 3.0 0.00 0.00 0.00 30 1007.6
20260503221007 85 235 3.0 5.0 0.00 0.00 0.00 30 1007.6
20260503220503 84 169 0.0 1.0 0.00 0.00 0.00 30 1007.5
20260503220000 84 214 3.0 6.0 0.00 0.00 0.00 28 1007.7
20260503215457 84 73 0.0 1.0 0.00 0.00 0.00 30 1007.6
20260503214954 85 256 3.0 3.0 0.00 0.00 0.00 28 1007.8
20260503214452 85 343 1.0 2.0 0.00 0.00 0.00 29 1007.8
20260503213949 86 164 3.0 7.0 0.00 0.00 0.00 29 1007.8
20260503213447 84 189 0.0 0.0 0.00 0.00 0.00 31 1007.8
20260503212943 84 179 2.0 5.0 0.00 0.00 0.00 31 1007.8
20260503212441 84 197 3.0 5.0 0.00 0.00 0.00 31 1008.0
20260503211938 84 206 3.0 5.0 0.00 0.00 0.00 34 1008.0
20260503211435 85 221 4.0 5.0 0.00 0.00 0.00 33 1008.1
20260503210930 84 196 2.0 3.0 0.00 0.00 0.00 34 1008.3
20260503210427 84 312 1.0 2.0 0.00 0.00 0.00 33 1008.3
20260503205922 84 12 2.0 6.0 0.00 0.00 0.00 33 1008.2
20260503205420 83 200 1.0 3.0 0.00 0.00 0.00 34 1008.5
20260503204916 84 175 1.0 1.0 0.00 0.00 0.00 34 1008.6
20260503204413 83 118 1.0 2.0 0.00 0.00 0.00 35 1008.6
20260503203910 83 198 3.0 3.0 0.00 0.00 0.00 35 1008.7
20260503203408 83 137 1.0 2.0 0.00 0.00 0.00 34 1009.1
20260503202904 82 220 5.0 6.0 0.00 0.00 0.00 34 1008.7
20260503202403 82 182 0.0 0.0 0.00 0.00 0.00 34 1009.1
20260503201901 82 149 0.0 0.0 0.00 0.00 0.00 36 1009.3
20260503201357 82 97 4.0 7.0 0.00 0.00 0.00 34 1009.5
20260503200855 82 218 5.0 7.0 0.00 0.00 0.00 33 1009.2
20260503200350 82 140 1.0 1.0 0.00 0.00 0.00 36 1009.4
20260503195848 81 195 3.0 5.0 0.00 0.00 0.00 35 1009.3
20260503195344 81 163 0.0 0.0 0.00 0.00 0.00 36 1009.5
20260503194842 81 183 2.0 3.0 0.00 0.00 0.00 34 1009.3
20260503194337 81 200 1.0 2.0 0.00 0.00 0.00 36 1009.8
20260503193834 81 137 1.0 2.0 0.00 0.00 0.00 36 1009.7
20260503193330 81 80 2.0 2.0 0.00 0.00 0.00 34 1009.8
20260503192826 81 155 2.0 2.0 0.00 0.00 0.00 36 1009.8
20260503192322 80 136 5.0 7.0 0.00 0.00 0.00 35 1009.8
20260503191818 80 165 0.0 0.0 0.00 0.00 0.00 38 1009.9
20260503191315 80 198 1.0 2.0 0.00 0.00 0.00 35 1010.1
20260503190812 79 161 1.0 1.0 0.00 0.00 0.00 39 1010.2
20260503190309 80 220 3.0 7.0 0.00 0.00 0.00 36 1009.9
20260503185806 80 152 0.0 0.0 0.00 0.00 0.00 38 1010.4